Location: *
(55.6049°S, 142.1985°W)
Time: 23:41:10
(UTC+00:00)

USA 281 - Pass Details

Date: 12 May 2021
Orbit: 1078 x 1081 km, 106.0° (Epoch: 18 June)

Event Time Altitude Azimuth Distance (km) Brightness Sun altitude
Rises 14:58:58 0° 148° (SSE) 3,917 6.5 -18.7°
Reaches altitude 10° 15:01:41 10° 156° (SSE) 2,957 5.7 -18.3°
Maximum altitude 15:07:38 37° 219° (SW) 1,644 3.8 -17.5°
Enters shadow 15:10:32 25° 264° (W) 2,033 4.0 -17.1°
